Home > Weather > Hartford > Past weeks

Flag for USA Past Weather in Hartford, Connecticut, USA — Yesterday and Last 2 Weeks

Now
83 °F

Scattered clouds.


Feels Like: 86 °F
Forecast: 67 / 80 °F
Wind: 9 mph from South

Location: Hartford-Brainard Airport

Current Time: May 30, 2016 at 4:34:37 PM

Latest Report: May 30, 2016 at 3:53 PM


Visibility: 10 mi

Pressure: 29.90 "Hg

Humidity: 61%

Dew Point: 68 °F

Location of HartfordLocation

Past Weather in Hartford — Graph

°F

Hartford Temperature Yesterday

Maximum temperature yesterday: 91 °F (at 1:53 PM)
Minimum temperature yesterday: 69 °F (at 4:53 AM)
Average temperature yesterday: 79 °F

High & Low Weather Summary for the Past Weeks

 TemperatureHumidityPressure
High94 °F (May 28, 3:53 PM)93% (May 25, 3:53 AM)30.25 "Hg (May 25, 3:53 AM)
Low44 °F (May 16, 3:53 AM)18% (May 16, 4:53 PM)29.70 "Hg (May 15, 2:53 PM)
Average67 °F57%30.02 "Hg
* Reported May 15 2:53 PM — May 30 2:53 PM, Hartford, Weather by CustomWeather, © 2016

Note: Actual official high and low records may vary slightly from our data, if they occured in-between our weather recording intervals... More about our weather records

Advertising

Hartford Weather History for the Previous 24 Hours

Scroll right to see more
 ConditionsComfort  
Time TempWeatherWind HumidityBarometerVisibility
2:53 PM
Mon, May 30
81 °FScattered clouds.7 mph65%29.92 "Hg10 mi
1:53 PM78 °FScattered clouds.7 mph74%29.94 "Hg10 mi
12:53 PM74 °FMostly cloudy.6 mph82%29.95 "Hg10 mi
11:53 AM72 °FMostly cloudy.5 mph84%29.97 "Hg10 mi
10:53 AM71 °FMostly cloudy.No wind84%29.98 "Hg10 mi
9:53 AM69 °FFog.3 mph90%29.99 "Hg3 mi
8:53 AM71 °FLow clouds.No wind87%29.99 "Hg10 mi
7:53 AM70 °FLight rain. Mostly cloudy.5 mph90%29.98 "Hg10 mi
6:53 AM70 °FLight rain. Fog.5 mph90%29.98 "Hg5 mi
5:53 AM70 °FLight rain. Passing clouds.5 mph87%30.00 "Hg10 mi
4:53 AM70 °FLight rain. Mostly cloudy.5 mph90%30.00 "Hg7 mi
3:53 AM71 °FRain. Fog.No wind90%30.01 "Hg3 mi
2:53 AM71 °FLow clouds.6 mph90%30.01 "Hg10 mi
1:53 AM72 °FLow clouds.7 mph91%30.03 "Hg10 mi
1:01 AM73 °FLow clouds.7 mph84%30.05 "Hg10 mi
11:53 PM
Sun, May 29
74 °FOvercast.8 mph82%30.07 "Hg10 mi
10:53 PM74 °FOvercast.6 mph79%30.08 "Hg10 mi
9:53 PM74 °FPassing clouds.8 mph79%30.09 "Hg10 mi
8:53 PM76 °FPartly sunny.12 mph74%30.09 "Hg10 mi
7:53 PM78 °FSunny.9 mph64%30.09 "Hg10 mi
6:53 PM81 °FSunny.12 mph44%30.07 "Hg10 mi
5:53 PM84 °FSunny.14 mph45%30.06 "Hg10 mi
4:53 PM87 °FSunny.13 mph43%30.06 "Hg10 mi
Weather by CustomWeather, © 2016

See weather overviewHow to use our weather pages